SHT21B EGJB-EGLL

Flight info

Callsign SHT21B
Flight time 0h 36m
Altitude 19000
Route ORIST L982 ROXOG
Aircraft A320/M-SDE3FGHIRWY/LB1

Departure

Time 2026-05-08 13:45
Airport Guernsey Airport (EGJB)

Arrival

Time 2026-05-08 14:22
Airport London Heathrow Airport (EGLL)
Time Latitude Longitude Altitude Speed Heading
2026-05-08 13:19 49.43254 -2.59621 328 ft 0 kts 178°
2026-05-08 13:37 49.43271 -2.59621 324 ft 4 kts 178°
2026-05-08 13:37 49.43298 -2.59622 326 ft 4 kts 178°
2026-05-08 13:37 49.43319 -2.59623 325 ft 4 kts 178°
2026-05-08 13:37 49.43344 -2.59624 325 ft 4 kts 198°
2026-05-08 13:38 49.43360 -2.59602 326 ft 4 kts 256°
2026-05-08 13:38 49.43364 -2.59561 328 ft 3 kts 268°
2026-05-08 13:38 49.43364 -2.59556 328 ft 0 kts 267°
2026-05-08 13:40 49.43363 -2.59568 327 ft 5 kts 267°
2026-05-08 13:40 49.43361 -2.59655 329 ft 11 kts 268°
2026-05-08 13:41 49.43349 -2.59769 325 ft 10 kts 256°
2026-05-08 13:41 49.43343 -2.59913 320 ft 18 kts 269°
2026-05-08 13:41 49.43336 -2.60166 302 ft 28 kts 267°
2026-05-08 13:41 49.43330 -2.60391 293 ft 22 kts 268°
2026-05-08 13:42 49.43331 -2.60639 298 ft 24 kts 282°
2026-05-08 13:42 49.43350 -2.60811 301 ft 9 kts 279°
2026-05-08 13:42 49.43359 -2.60885 307 ft 5 kts 280°
2026-05-08 13:42 49.43365 -2.60959 309 ft 9 kts 270°
2026-05-08 13:43 49.43362 -2.61082 311 ft 13 kts 267°
2026-05-08 13:43 49.43358 -2.61201 313 ft 6 kts 268°
2026-05-08 13:43 49.43372 -2.61270 313 ft 7 kts 301°
2026-05-08 13:43 49.43403 -2.61326 315 ft 7 kts 313°
2026-05-08 13:44 49.43446 -2.61359 316 ft 5 kts 351°
2026-05-08 13:44 49.43466 -2.61310 315 ft 8 kts 88°
2026-05-08 13:44 49.43467 -2.61288 315 ft 10 kts 88°
2026-05-08 13:44 49.43483 -2.60701 310 ft 94 kts 87°
2026-05-08 13:45 49.43525 -2.59427 480 ft 133 kts 85°
2026-05-08 13:45 49.43570 -2.58041 1189 ft 129 kts 87°
2026-05-08 13:45 49.43606 -2.56633 1693 ft 140 kts 89°
2026-05-08 13:45 49.43649 -2.55033 1950 ft 161 kts 89°
2026-05-08 13:46 49.43698 -2.53184 2298 ft 184 kts 89°
2026-05-08 13:46 49.43781 -2.51096 2742 ft 205 kts 81°
2026-05-08 13:46 49.44477 -2.49155 3506 ft 218 kts 42°
2026-05-08 13:46 49.45881 -2.48195 4322 ft 227 kts 16°
2026-05-08 13:47 49.47434 -2.47610 5172 ft 232 kts 15°
2026-05-08 13:47 49.49028 -2.47022 5804 ft 250 kts 14°
2026-05-08 13:47 49.50795 -2.46369 6316 ft 273 kts 14°
2026-05-08 13:47 49.52681 -2.45669 7112 ft 282 kts 14°
2026-05-08 13:48 49.54606 -2.44950 8020 ft 287 kts 14°
2026-05-08 13:48 49.56561 -2.44213 8946 ft 291 kts 14°
2026-05-08 13:48 49.58546 -2.43459 9872 ft 296 kts 14°
2026-05-08 13:48 49.60570 -2.42686 10587 ft 308 kts 14°
2026-05-08 13:49 49.62726 -2.41861 10896 ft 331 kts 14°
2026-05-08 13:49 49.65022 -2.40977 11346 ft 346 kts 14°
2026-05-08 13:49 49.67380 -2.40057 12059 ft 352 kts 16°
2026-05-08 13:49 49.69656 -2.38599 12805 ft 356 kts 30°
2026-05-08 13:50 49.71653 -2.36330 13553 ft 360 kts 45°
2026-05-08 13:50 49.73328 -2.33429 14254 ft 363 kts 51°
2026-05-08 13:50 49.74939 -2.30477 14913 ft 367 kts 50°
2026-05-08 13:50 49.76595 -2.27448 15581 ft 371 kts 50°
2026-05-08 13:51 49.78270 -2.24390 16220 ft 374 kts 50°
2026-05-08 13:51 49.79969 -2.21293 16860 ft 379 kts 50°
2026-05-08 13:51 49.81682 -2.18174 17527 ft 382 kts 50°
2026-05-08 13:51 49.83415 -2.15023 18168 ft 386 kts 49°
2026-05-08 13:52 49.85165 -2.11840 18751 ft 390 kts 49°
2026-05-08 13:52 49.86927 -2.08625 18983 ft 392 kts 49°
2026-05-08 13:52 49.88702 -2.05372 19052 ft 401 kts 49°
2026-05-08 13:52 49.90517 -2.02034 19055 ft 407 kts 50°
2026-05-08 13:53 49.92339 -1.98676 19054 ft 408 kts 50°
2026-05-08 13:53 49.94170 -1.95291 19054 ft 409 kts 50°
2026-05-08 13:53 49.95996 -1.91910 19057 ft 409 kts 50°
2026-05-08 13:53 49.97809 -1.88557 19055 ft 409 kts 50°
2026-05-08 13:54 49.99806 -1.85430 19055 ft 409 kts 40°
2026-05-08 13:54 50.02132 -1.82875 19056 ft 409 kts 30°
2026-05-08 13:54 50.04656 -1.80841 19058 ft 408 kts 26°
2026-05-08 13:54 50.07186 -1.78847 19059 ft 408 kts 26°
2026-05-08 13:55 50.09714 -1.76844 19061 ft 408 kts 26°
2026-05-08 13:55 50.12203 -1.74714 19059 ft 408 kts 33°
2026-05-08 13:55 50.16605 -1.69239 19068 ft 408 kts 40°
2026-05-08 13:56 50.18784 -1.66406 19070 ft 408 kts 40°
2026-05-08 13:56 50.20971 -1.63568 19072 ft 408 kts 40°
2026-05-08 13:56 50.23153 -1.60736 19077 ft 408 kts 40°
2026-05-08 13:56 50.25380 -1.57996 19076 ft 408 kts 34°
2026-05-08 13:57 50.27850 -1.55823 19077 ft 408 kts 24°
2026-05-08 13:57 50.30521 -1.54319 19078 ft 407 kts 17°
2026-05-08 13:57 50.33230 -1.53014 19075 ft 407 kts 17°
2026-05-08 13:57 50.35939 -1.51700 19077 ft 407 kts 17°
2026-05-08 13:58 50.38639 -1.50378 19075 ft 408 kts 17°
2026-05-08 13:58 50.41309 -1.49065 19081 ft 408 kts 17°
2026-05-08 13:58 50.44021 -1.47727 19080 ft 408 kts 17°
2026-05-08 13:58 50.46728 -1.46390 19079 ft 408 kts 17°
2026-05-08 13:59 50.49436 -1.45052 19077 ft 408 kts 17°
2026-05-08 13:59 50.52144 -1.43709 19080 ft 408 kts 18°
2026-05-08 13:59 50.54774 -1.42037 19078 ft 408 kts 27°
2026-05-08 13:59 50.57263 -1.39902 19079 ft 408 kts 29°
2026-05-08 14:00 50.59751 -1.37760 19079 ft 408 kts 28°
2026-05-08 14:00 50.62245 -1.35619 19081 ft 408 kts 28°
2026-05-08 14:00 50.64739 -1.33479 19087 ft 408 kts 28°
2026-05-08 14:00 50.67235 -1.31332 19082 ft 408 kts 28°
2026-05-08 14:01 50.69736 -1.29179 19084 ft 409 kts 28°
2026-05-08 14:01 50.72227 -1.27031 19081 ft 409 kts 28°
2026-05-08 14:01 50.74688 -1.24907 19040 ft 406 kts 28°
2026-05-08 14:01 50.77151 -1.22735 18748 ft 395 kts 31°
2026-05-08 14:02 50.79454 -1.20515 18215 ft 392 kts 33°
2026-05-08 14:02 50.81724 -1.18172 17648 ft 387 kts 34°
2026-05-08 14:02 50.83943 -1.15806 17121 ft 382 kts 34°
2026-05-08 14:02 50.86134 -1.13464 16592 ft 378 kts 34°
2026-05-08 14:03 50.88311 -1.11156 16067 ft 374 kts 34°
2026-05-08 14:03 50.90467 -1.08889 15544 ft 371 kts 34°
2026-05-08 14:03 50.92616 -1.06650 15022 ft 368 kts 33°
2026-05-08 14:03 50.94754 -1.04430 14506 ft 365 kts 33°
2026-05-08 14:04 50.96876 -1.02237 13988 ft 363 kts 33°
2026-05-08 14:04 50.98981 -1.00061 13432 ft 360 kts 33°
2026-05-08 14:04 51.00946 -0.97650 12913 ft 355 kts 44°
2026-05-08 14:04 51.02597 -0.94789 12523 ft 348 kts 49°
2026-05-08 14:05 51.04196 -0.91934 12112 ft 344 kts 49°
2026-05-08 14:05 51.05784 -0.89110 11706 ft 341 kts 49°
2026-05-08 14:05 51.07358 -0.86308 11306 ft 339 kts 49°
2026-05-08 14:05 51.08927 -0.83517 10897 ft 337 kts 49°
2026-05-08 14:06 51.10484 -0.80745 10498 ft 335 kts 49°
2026-05-08 14:06 51.12010 -0.78027 10366 ft 323 kts 49°
2026-05-08 14:06 51.13481 -0.75400 10241 ft 312 kts 49°
2026-05-08 14:06 51.14885 -0.72889 10064 ft 304 kts 49°
2026-05-08 14:07 51.16275 -0.70399 9911 ft 301 kts 49°
2026-05-08 14:07 51.17660 -0.67911 9572 ft 299 kts 50°
2026-05-08 14:07 51.19035 -0.65435 9237 ft 297 kts 49°
2026-05-08 14:07 51.20400 -0.62978 8915 ft 295 kts 49°
2026-05-08 14:08 51.21757 -0.60534 8590 ft 294 kts 50°
2026-05-08 14:08 51.23108 -0.58098 8276 ft 293 kts 49°
2026-05-08 14:08 51.24451 -0.55673 7955 ft 291 kts 49°
2026-05-08 14:08 51.25790 -0.53256 7638 ft 289 kts 49°
2026-05-08 14:09 51.27118 -0.50856 7369 ft 286 kts 49°
2026-05-08 14:09 51.28415 -0.48507 7243 ft 278 kts 49°
2026-05-08 14:09 51.29674 -0.46229 7118 ft 270 kts 49°
2026-05-08 14:09 51.30883 -0.44060 7088 ft 261 kts 47°
2026-05-08 14:10 51.32357 -0.42429 7087 ft 256 kts 18°
2026-05-08 14:10 51.34098 -0.42166 7086 ft 252 kts 349°
2026-05-08 14:10 51.35252 -0.42600 7082 ft 252 kts 338°
2026-05-08 14:10 51.37219 -0.44478 7084 ft 249 kts 322°
2026-05-08 14:11 51.38615 -0.46120 7086 ft 249 kts 321°
2026-05-08 14:11 51.39891 -0.47954 6887 ft 246 kts 309°
2026-05-08 14:11 51.40981 -0.50050 6625 ft 244 kts 306°
2026-05-08 14:11 51.41690 -0.51453 6418 ft 244 kts 306°
2026-05-08 14:12 51.42753 -0.53573 6115 ft 243 kts 306°
2026-05-08 14:12 51.43790 -0.55712 5810 ft 243 kts 299°
2026-05-08 14:12 51.44419 -0.58174 5487 ft 238 kts 283°
2026-05-08 14:12 51.44767 -0.60759 5138 ft 235 kts 269°
2026-05-08 14:13 51.44700 -0.63366 4853 ft 233 kts 262°
2026-05-08 14:13 51.44550 -0.65919 4656 ft 226 kts 261°
2026-05-08 14:13 51.44391 -0.68376 4524 ft 217 kts 261°
2026-05-08 14:13 51.44247 -0.70729 4382 ft 205 kts 262°
2026-05-08 14:14 51.44106 -0.72932 4168 ft 195 kts 261°
2026-05-08 14:14 51.43970 -0.75079 3829 ft 193 kts 261°
2026-05-08 14:14 51.43831 -0.77214 3459 ft 192 kts 261°
2026-05-08 14:14 51.43687 -0.79351 3192 ft 193 kts 261°
2026-05-08 14:15 51.43547 -0.81497 3033 ft 193 kts 261°
2026-05-08 14:15 51.43569 -0.83650 2985 ft 197 kts 287°
2026-05-08 14:15 51.44342 -0.85407 2999 ft 199 kts 326°
2026-05-08 14:15 51.45651 -0.86043 3013 ft 196 kts
2026-05-08 14:16 51.46874 -0.85264 3010 ft 189 kts 46°
2026-05-08 14:16 51.47517 -0.83535 3013 ft 183 kts 83°
2026-05-08 14:16 51.47574 -0.81524 3034 ft 181 kts 92°
2026-05-08 14:16 51.47583 -0.79498 3023 ft 181 kts 92°
2026-05-08 14:17 51.47595 -0.77493 3003 ft 174 kts 92°
2026-05-08 14:17 51.47607 -0.75620 3002 ft 165 kts 91°
2026-05-08 14:17 51.47618 -0.73808 3005 ft 161 kts 93°
2026-05-08 14:17 51.47629 -0.72015 2914 ft 161 kts 92°
2026-05-08 14:18 51.47639 -0.70228 2745 ft 160 kts 92°
2026-05-08 14:18 51.47650 -0.68449 2546 ft 159 kts 92°
2026-05-08 14:18 51.47660 -0.66683 2348 ft 158 kts 92°
2026-05-08 14:18 51.47669 -0.64927 2124 ft 156 kts 92°
2026-05-08 14:19 51.47679 -0.63203 1920 ft 157 kts 92°
2026-05-08 14:19 51.47688 -0.61445 1709 ft 158 kts 92°
2026-05-08 14:19 51.47698 -0.59683 1495 ft 157 kts 93°
2026-05-08 14:19 51.47707 -0.57932 1272 ft 156 kts 92°
2026-05-08 14:20 51.47716 -0.56193 1077 ft 153 kts 92°
2026-05-08 14:20 51.47724 -0.54546 871 ft 138 kts 92°
2026-05-08 14:20 51.47729 -0.53032 667 ft 131 kts 92°
2026-05-08 14:20 51.47736 -0.51589 491 ft 130 kts 91°
2026-05-08 14:21 51.47741 -0.50149 320 ft 128 kts 91°
2026-05-08 14:21 51.47747 -0.48729 166 ft 127 kts 91°
2026-05-08 14:21 51.47748 -0.47352 87 ft 111 kts 91°
2026-05-08 14:21 51.47757 -0.46386 90 ft 50 kts 88°
2026-05-08 14:22 51.47720 -0.46160 86 ft 14 kts 143°
2026-05-08 14:22 51.47642 -0.46079 87 ft 12 kts 155°
2026-05-08 14:22 51.47594 -0.46162 88 ft 13 kts 270°
2026-05-08 14:22 51.47594 -0.46327 89 ft 16 kts 269°
2026-05-08 14:23 51.47593 -0.46478 86 ft 14 kts 269°
2026-05-08 14:23 51.47592 -0.46647 86 ft 17 kts 269°
2026-05-08 14:23 51.47588 -0.46831 86 ft 15 kts 262°
2026-05-08 14:23 51.47583 -0.46998 86 ft 16 kts 269°
2026-05-08 14:24 51.47581 -0.47199 88 ft 19 kts 269°
2026-05-08 14:24 51.47581 -0.47432 90 ft 19 kts 268°
2026-05-08 14:24 51.47581 -0.47644 89 ft 20 kts 269°
2026-05-08 14:24 51.47579 -0.47885 88 ft 23 kts 270°
2026-05-08 14:25 51.47578 -0.48137 88 ft 20 kts 269°
2026-05-08 14:25 51.47578 -0.48372 88 ft 22 kts 270°
2026-05-08 14:25 51.47577 -0.48623 86 ft 23 kts 269°
2026-05-08 14:25 51.47576 -0.48819 86 ft 14 kts 270°
2026-05-08 14:26 51.47563 -0.48937 91 ft 9 kts 226°
2026-05-08 14:26 51.47504 -0.48925 88 ft 6 kts 139°
2026-05-08 14:26 51.47471 -0.48893 89 ft 7 kts 168°
2026-05-08 14:26 51.47435 -0.48891 86 ft 3 kts 179°
2026-05-08 14:27 51.47413 -0.48891 88 ft 3 kts 180°
2026-05-08 14:27 51.47404 -0.48891 88 ft 0 kts 180°